Weather in Zarechye

Russia / Novosibirsk Oblast     55°42′24″N   76°44′04″E
temp.,
°C
wind,
m/s
gust,
m/s
humid.,
%
clouds,
%
prec.,
mm/h
press.,
hPa
HPBL,
m
28 february, sun
sun2801:00−30s349939 0.0 103547
04:00−31sse349974 0.0 103348
07:00−30se449967 0.0 103263
10:00−27se599894 0.0 1030219
13:00−23ese599497 0.0 1028270
16:00−20ese599296 0.0 1025332
19:00−19ese5109595 0.1 1022375
22:00−20e5997100 0.1 1020246
1 march, mon
mon101:00−18e61196100 0.1 1016277
04:00−17ene61195100 0.4 1013307
07:00−15ene71295100 1.1 1010343
10:00−15ene71293100 0.2 1008360
13:00−14ne61094100 0.4 1008367
16:00−12ne61093100 0.4 1008434
19:00−13nne5993100 0.6 1010399
22:00−14nne4894100 0.1 1012330
2 march, tue
tue201:00−17nne339794 0.1 101456
04:00−19nne239890 0.1 101621
07:00−20ne119989 0.1 101720
10:00−19ene009797 0.1 101726
13:00−15sse119198 0.1 1017224
16:00−14s2288100 0.2 1016387
19:00−14sse1296100 0.3 101620
22:00−16se2296100 0.1 101521
3 march, wed
wed301:00−16sse129793 0.2 101520
04:00−17ssw119791 0.1 101520
07:00−18sse119784 0.2 101620
10:00−17ssw119776 0.1 101622
13:00−14ssw229079 0.1 1017283
16:00−12ssw349199 0.0 1017416
19:00−15s349699 0.1 101850
22:00−18s479870 0.0 1018111
4 march, thu
thu401:00−18s5109683 0.0 1018212
04:00−17sse5119597 0.0 1016271
07:00−15sse5119498 0.0 1015300
10:00−14sse61293100 0.0 1013335
13:00−11sse71291100 0.0 1012415
16:00−8sse81393100 0.3 1010513
19:00−7s71492100 0.5 1008578
22:00−7sse71394100 0.5 1006512